Regional Weather Roundup
Issued by NWS

Home | Current Version | Previous Version | Graphics & Text | Print | Product List | Glossary On
Versions: 1 2 3 4 5 6 7 8 9 10 11 12 13 14 15 16 17 18 19 20 21 22 23 24 25 26 27 28 29 30 31 32 33 34 35 36 37 38 39 40 41 42 43 44 45 46 47 48 49 50
000
ASUS45 KABQ 290501
RWRNM
NEW MEXICO REGIONAL WEATHER ROUNDUP
NATIONAL WEATHER SERVICE ALBUQUERQUE NM
1100 PM MDT THU MAY 28 2015

NOTE: "FAIR" MEANS FEW OR NO CLOUDS BELOW 12,000 FEET AGL WITH NO
       SIGNIFICANT WEATHER OR OBSTRUCTIONS TO VISION.

      THIS PRODUCT IS RELEASED AS TWO VERSIONS.  ONE VERSION NEAR
      THE TOP OF THE HOUR CONTAINING PRELIMINARY DATA FROM ALBUQUERQUE
      AND OTHER STATIONS.  A FINAL VERSION WITH ADDITIONAL DATA IS
      ISSUED ABOUT 10 MINUTES AFTER THE HOUR.

NMZ501-503-504-510>518-290600-
NORTHWEST PLATEAU/NORTHCENTRAL MOUNTAINS

CITY           SKY/WX    TMP DP  RH WIND       PRES   REMARKS
FARMINGTON     PTCLDY    59  38  45 N8        30.13R
SANTA FE       CLEAR     60  28  29 N10       30.12R
TAOS           CLEAR     52  27  37 N14       30.21R

$$
NMZ402-403-502-505>509-290600-
WESTCENTRAL MOUNTAINS/SOUTHWEST MOUNTAINS

CITY           SKY/WX    TMP DP  RH WIND       PRES   REMARKS
GALLUP         CLEAR     51  23  33 CALM      30.16S
SILVER CITY      N/A     59  18  20 NW13      30.11R

$$
NMZ407-409-411-412-290600-
SOUTHERN DESERTS

CITY           SKY/WX    TMP DP  RH WIND       PRES   REMARKS
DEMING         CLEAR     73  17  12 NW10      30.00R
HOLLOMAN AFB   PTCLDY    73  19  13 S8        29.93R
ALAMOGORDO     CLEAR     72  18  13 S10       29.96R
T OR C         CLEAR     77  15   9 NW13      30.01R

$$
NMZ519>523-290600-
CENTRAL VALLEYS/CENTRAL HIGHLANDS

CITY           SKY/WX    TMP DP  RH WIND       PRES   REMARKS
ALBUQUERQUE    CLEAR     72  31  22 N7        30.07R
DOUBLE EAGLE   CLEAR     60  34  37 NW10      30.11R
CLINES CORNERS CLEAR     59  24  26 N9        30.16R
BELEN          FAIR      66  19  16 NW10      30.06R
SOCORRO        NOT AVBL

$$
NMZ524>526-539-540-290600-
SOUTHCENTRAL MOUNTAINS

CITY           SKY/WX    TMP DP  RH WIND       PRES   REMARKS
RUIDOSO        NOT AVBL

$$
NMZ527>531-290600-
NORTHEAST HIGHLANDS/NORTHEAST PLAINS

CITY           SKY/WX    TMP DP  RH WIND       PRES   REMARKS
LAS VEGAS      CLEAR     57  29  34 N8        30.15R
RATON          CLOUDY    58  43  57 W6        30.14R
CLAYTON        MOCLDY    58  46  64 SW8       30.05R

$$
NMZ532>537-290600-
EASTCENTRAL PLAINS

CITY           SKY/WX    TMP DP  RH WIND       PRES   REMARKS
TUCUMCARI      CLOUDY    62  55  77 NE10      30.01R
CANNON AFB     NOT AVBL
CLOVIS AIRPORT CLOUDY    59  54  82 NE3       29.99R

$$
NMZ028-029-538-290600-
SOUTHEAST PLAINS

CITY           SKY/WX    TMP DP  RH WIND       PRES   REMARKS
ROSWELL        MOCLDY    64  55  72 S7        29.97R
ARTESIA        PTCLDY    66  54  63 SE15      29.99R
CARLSBAD       PTCLDY    65  56  72 E8        29.98R
HOBBS          CLOUDY    61  55  82 E14G23    30.00F


$$


USA.gov is the U.S. government's official web portal to all federal, state and local government web resources and services.